Location: Marcé
(47.5801°N, 0.3280°W)
Time: 20:56:08
(UTC+01:00)

Altair - Pass Details

Date: 10 December 2021
Orbit: 1501 x 1683 km, 47.2° (Epoch: 20 January)

Event Time Altitude Azimuth Distance (km) Brightness Sun altitude
Rises 17:54:12 0° 271° (W) 4,770 11.4 -7.3°
Reaches altitude 10° 17:57:19 10° 271° (W) 3,761 10.7 -7.8°
Maximum altitude 18:06:50 88° 185° (S) 1,533 7.5 -9.2°
Drops below altitude 10° 18:16:04 10° 96° (E) 3,658 8.9 -10.7°
Enters shadow 18:16:49 - 96° (E) 3,902 9.1 -10.8°
Sets 18:19:03 0° 96° (E) 4,633 - -11.1°
